Regional Weather Roundup
Issued by NWS

Home | Current Version | Previous Version | Graphics & Text | Print | Product List | Glossary On
Versions: 1 2 3 4 5 6 7 8 9 10 11 12 13 14 15 16 17 18 19 20 21 22 23 24 25 26 27 28 29 30 31 32 33 34 35 36 37 38 39 40 41 42 43 44 45 46 47 48 49 50
509
ASUS44 KMEG 282010
RWRTN
TENNESSEE HOURLY STATE WEATHER ROUNDUP
NATIONAL WEATHER SERVICE MEMPHIS TN
300 PM CDT WED SEP 28 2016

TNZ002-004-019-021-049-052-054-088>092-282100-
WEST TENNESSEE

CITY           SKY/WX    TMP DP  RH WIND       PRES   REMARKS
MEMPHIS INTL   SUNNY     88  50  27 SW16G22   29.87F
NWS MEMPHIS      N/A     87 N/A N/A MISG        N/A
JACKSON        SUNNY    N/A N/A N/A S13       29.86S
DYERSBURG      MOSUNNY  N/A N/A N/A MISG        N/A
UNION CITY     MOSUNNY   77  55  47 N8        29.88R
PARIS          PTSUNNY   73  54  49 NW8       29.88S
HUNTINGDON     CLOUDY    81  54  39 NW8G16    29.85R
LEXINGTON      SUNNY     86  43  22 SW18      29.85S
$$

TNZ008-025-027-028-033-062-065-066-282100-
NORTH MIDDLE TENNESSEE

CITY           SKY/WX    TMP DP  RH WIND       PRES   REMARKS
NASHVILLE      MOSUNNY   83  46  27 SW15G25   29.84F
PORTLAND       CLOUDY    77  52  41 SW8G15    29.84R
CLARKSVILLE    CLOUDY    73  55  53 NW18      29.87R
SMYRNA         SUNNY     84  47  27 SW20G25   29.85F
COOKEVILLE     SUNNY     82  48  30 SW13      29.88F
GALLATIN       MOSUNNY   82  50  32 VRB5G16   29.86F
CROSSVILLE     SUNNY     77  43  29 SW9G20    29.94F
$$

TNZ061-075-076-078-094-096-097-282100-
SOUTH MIDDLE TENNESSEE

CITY           SKY/WX    TMP DP  RH WIND       PRES   REMARKS
FAYETTEVILLE   SUNNY     81  45  28 W9G16     29.92F
TULLAHOMA      SUNNY     81  41  24 SW10      29.92F
WINCHESTER     SUNNY     81  46  30 W6        29.92F
MCMINNVILLE    SUNNY     82  48  30 S9        29.90F
COLUMBIA       SUNNY     84  48  28 W10       29.87F
SHELBYVILLE    SUNNY     84  48  28 S14       29.90F
$$

TNZ017-018-042-046-047-282100-
NORTHEAST TENNESSEE

CITY           SKY/WX    TMP DP  RH WIND       PRES   REMARKS
TRI CITIES     MOSUNNY   80  41  24 SW12      29.90F
ELIZABETHTON   SUNNY     79  52  38 W10       29.90F
$$

TNZ012-013-036-069-073-074-282100-
CENTRAL EAST TENNESSEE

CITY           SKY/WX    TMP DP  RH WIND       PRES   REMARKS
KNOXVILLE      MOSUNNY   81  42  25 SW10      29.89F
OAK RIDGE      SUNNY     81  45  28 VRB3      29.91F
DOWNTOWN KNOXV SUNNY     82  45  26 VRB6G15   29.89F
GATLINBURG     SUNNY     84  39  20 W8        29.88F
MORRISTOWN     SUNNY     81  37  21 VRB6G18   29.89F
JACKSBORO      SUNNY     79  46  31 S13       29.92F
$$

TNZ083-085-099-282100-
SOUTHEAST TENNESSEE

CITY           SKY/WX    TMP DP  RH WIND       PRES   REMARKS
CHATTANOOGA    MOSUNNY   84  43  23 S8        29.90F
$$

SKY/WX REPORTED AS FAIR MEANS FEW OR NO CLOUDS BELOW
12 THOUSAND FEET.





USA.gov is the U.S. government's official web portal to all federal, state and local government web resources and services.